Location: Mohawk View
(42.7837°N, 73.7885°W)
Time: 08:38:07
(UTC+00:00)

CZ-2C R/B - Pass Details

Date: 17 June 2021
Orbit: 667 x 785 km, 98.2° (Epoch: 28 July)

Event Time Altitude Azimuth Distance (km) Brightness Sun altitude
Rises 07:53:50 0° 23° (NNE) 3,217 7.3 -12.2°
Reaches altitude 10° 07:56:27 10° 34° (NE) 2,269 6.5 -11.9°
Maximum altitude 08:00:47 29° 95° (E) 1,314 4.1 -11.4°
Drops below altitude 10° 08:04:57 10° 155° (SSE) 2,187 4.6 -10.8°
Sets 08:07:26 0° 167° (SSE) 3,082 5.3 -10.5°
